EW0734 Weather Reports


time (UTC)temp
C
wind
direction
speed
KPH
gust
KPH
rain 1hr
cm
rain 24hr
cm
rain mn
cm
humidity
%
barometer
mb
20260903053529 21 0.0 0.0 0.00 0.00 0.00 82 1015.7
20260903052528 21 0.0 0.0 0.00 0.00 0.00 84 1015.7
20260903051529 21 0.0 0.0 0.00 0.00 0.00 85 1015.8
20260903050528 22 0.0 0.0 0.00 0.00 0.00 83 1015.9
20260903045529 22 0.0 0.0 0.00 0.00 0.00 83 1015.9
20260903044528 22 0.0 0.0 0.00 0.00 0.00 85 1015.9
20260903043528 22 0.0 0.0 0.00 0.00 0.00 85 1015.9
20260903042548 22 0.0 0.0 0.00 0.00 0.00 86 1016.0
20260903041529 22 0.0 0.0 0.00 0.00 0.00 87 1015.9
20260903040538 22 0.0 0.0 0.00 0.00 0.00 88 1015.8
20260903035528 22 0.0 0.0 0.00 0.00 0.00 89 1015.9
20260903034529 22 0.0 0.0 0.00 0.00 0.00 90 1015.8
20260903033550 22 0.0 0.0 0.00 0.00 0.00 90 1015.7
20260903032528 22 0.0 0.0 0.00 0.00 0.00 90 1015.6
20260903031528 22 0.0 0.0 0.00 0.00 0.00 91 1015.4
20260903030529 22 0.0 0.0 0.00 0.00 0.00 91 1015.4
20260903025528 22 0.0 0.0 0.00 0.00 0.00 91 1015.3
20260903024528 22 0.0 0.0 0.00 0.00 0.00 92 1015.3
20260903023527 22 0.0 0.0 0.00 0.00 0.00 92 1015.1
20260903022528 22 0.0 0.0 0.00 0.00 0.00 93 1015.2
20260903021528 22 0.0 0.0 0.00 0.00 0.00 93 1015.1
20260903020529 22 0.0 0.0 0.00 0.00 0.00 92 1015.5
20260903015548 22 0.0 0.0 0.00 0.00 0.00 92 1015.6
20260903014528 23 0.0 0.0 0.00 0.00 0.00 92 1015.8
20260903013527 23 0.0 0.0 0.00 0.00 0.00 92 1015.8
20260903012548 23 0.0 0.0 0.00 0.00 0.00 92 1015.6
20260903011528 23 0.0 0.0 0.00 0.00 0.00 92 1015.6
20260903010548 23 0.0 0.0 0.00 0.00 0.00 91 1015.9
20260903005529 23 0.0 0.0 0.00 0.00 0.00 91 1016.0
20260903004529 23 0.0 0.0 0.00 0.00 0.00 91 1015.8
20260903003528 23 0.0 0.0 0.00 0.00 0.00 90 1015.8
20260903002528 23 0.0 0.0 0.00 0.00 0.00 90 1015.5
20260903001528 23 0.0 0.0 0.00 0.00 0.00 90 1015.5
20260903000528 23 0.0 0.0 0.00 0.00 0.00 90 1015.6
20260902235548 23 0.0 0.0 0.00 0.00 0.00 90 1015.6
20260902234528 23 0.0 0.0 0.00 0.00 0.00 89 1015.2
20260902233607 24 0.0 0.0 0.00 0.00 0.00 89 1015.4
20260902232529 24 0.0 0.0 0.00 0.00 0.00 88 1015.8
20260902231528 24 0.0 0.0 0.00 0.00 0.00 88 1015.9
20260902230528 25 0.0 0.0 0.00 0.00 0.00 88 1016.1
20260902225528 25 0.0 0.0 0.00 0.00 0.00 87 1016.3
20260902224528 25 0.0 0.0 0.00 0.00 0.00 87 1016.2
20260902223527 25 0.0 0.0 0.00 0.00 0.00 87 1016.1
20260902222527 25 0.0 0.0 0.00 0.00 0.00 87 1016.4
20260902221528 25 0.0 0.0 0.00 0.00 0.00 87 1016.5
20260902220528 25 0.0 0.0 0.00 0.00 0.00 86 1015.7
20260902215527 25 0.0 0.0 0.00 0.00 0.00 86 1015.6
20260902214547 25 0.0 0.0 0.00 0.00 0.00 86 1015.8
20260902213527 25 0.0 0.0 0.00 0.00 0.00 85 1015.5
20260902212528 25 0.0 0.0 0.00 0.00 0.00 84 1015.8
20260902211549 25 0.0 0.0 0.00 0.00 0.00 83 1016.0
20260902210529 25 0.0 0.0 0.00 0.00 0.00 83 1015.9
20260902205527 26 0.0 0.0 0.00 0.00 0.00 82 1016.3
20260902204527 26 0.0 0.0 0.00 0.00 0.00 80 1016.5
20260902203530 26 0.0 0.0 0.00 0.00 0.00 80 1016.2
20260902202530 27 0.0 0.0 0.00 0.00 0.00 79 1016.4
20260902201527 27 0.0 0.0 0.00 0.00 0.00 80 1016.5
20260902200528 27 0.0 0.0 0.00 0.00 0.00 78 1016.3
20260902195527 28 0.0 0.0 0.00 0.00 0.00 76 1016.5
20260902194529 28 0.0 0.0 0.00 0.00 0.00 75 1016.9
20260902193530 30 0.0 0.0 0.00 0.00 0.00 71 1016.6
20260902192549 33 0.0 0.0 0.00 0.00 0.00 64 1016.7
20260902191529 33 0.0 0.0 0.00 0.00 0.00 68 1015.9
20260902190529 33 0.0 0.0 0.00 0.00 0.00 65 1015.5
20260902185529 34 0.0 0.0 0.00 0.00 0.00 65 1015.8
20260902184548 34 0.0 0.0 0.00 0.00 0.00 64 1016.3
20260902183530 34 0.0 0.0 0.00 0.00 0.00 65 1016.3
20260902182530 33 0.0 0.0 0.00 0.00 0.00 65 1016.1
20260902181530 33 0.0 0.0 0.00 0.00 0.00 67 1015.9
20260902180530 34 0.0 0.0 0.00 0.00 0.00 64 1016.0
20260902175529 33 0.0 0.0 0.00 0.00 0.00 65 1016.2
20260902174550 34 0.0 0.0 0.00 0.00 0.00 65 1016.2
20260902173529 33 0.0 0.0 0.00 0.00 0.00 66 1016.3
20260902172529 33 0.0 0.0 0.00 0.00 0.00 63 1016.3
20260902171550 33 0.0 0.0 0.00 0.00 0.00 64 1016.4
20260902170528 33 0.0 0.0 0.00 0.00 0.00 63 1016.4
20260902165529 33 0.0 0.0 0.00 0.00 0.00 64 1016.6
20260902164529 33 0.0 0.0 0.00 0.00 0.00 65 1016.5
20260902163529 33 0.0 0.0 0.00 0.00 0.00 67 1016.5
20260902162530 32 0.0 0.0 0.00 0.00 0.00 65 1016.6
20260902161529 32 0.0 0.0 0.00 0.00 0.00 67 1016.6
20260902160528 33 0.0 0.0 0.00 0.00 0.00 63 1016.5
20260902155529 32 0.0 0.0 0.00 0.00 0.00 65 1016.4
20260902154529 32 0.0 0.0 0.00 0.00 0.00 64 1016.5
20260902153529 32 0.0 0.0 0.00 0.00 0.00 67 1016.5
20260902152529 32 0.0 0.0 0.00 0.00 0.00 65 1016.5
20260902151550 32 0.0 0.0 0.00 0.00 0.00 65 1016.6
20260902150534 32 0.0 0.0 0.00 0.00 0.00 69 1016.6
20260902145529 32 0.0 0.0 0.00 0.00 0.00 68 1016.7
20260902144529 31 0.0 0.0 0.00 0.00 0.00 71 1016.7
20260902143529 31 0.0 0.0 0.00 0.00 0.00 72 1016.8
20260902142549 31 0.0 0.0 0.00 0.00 0.00 75 1016.5
20260902141529 31 0.0 0.0 0.00 0.00 0.00 72 1016.4
20260902140528 31 0.0 0.0 0.00 0.00 0.00 73 1016.5
20260902135530 31 0.0 0.0 0.00 0.00 0.00 75 1016.5
20260902134529 30 0.0 0.0 0.00 0.00 0.00 75 1016.4
20260902133528 29 0.0 0.0 0.00 0.00 0.00 80 1016.3
20260902132528 28 0.0 0.0 0.00 0.00 0.00 82 1016.4
20260902131528 27 0.0 0.0 0.00 0.00 0.00 86 1016.1
20260902130528 26 0.0 0.0 0.00 0.00 0.00 89 1016.2
20260902125529 25 0.0 0.0 0.00 0.00 0.00 91 1016.2
20260902124529 25 0.0 0.0 0.00 0.00 0.00 92 1016.2
20260902123529 24 0.0 0.0 0.00 0.00 0.00 92 1016.1
20260902122529 23 0.0 0.0 0.00 0.00 0.00 92 1016.2
20260902121528 23 0.0 0.0 0.00 0.00 0.00 92 1016.3
20260902120529 23 0.0 0.0 0.00 0.00 0.00 91 1016.3
20260902120056 -17 0.0 0.0 0.00 0.00 0.00
20260902115527 -17 0.0 0.0 0.00 0.00 0.00
20260902114527 -17 0.0 0.0 0.00 0.00 0.00
20260902114046 -17 0.0 0.0 0.00 0.00 0.00
20260902113622 -17 0.0 0.0 0.00 0.00 0.00
20260902113027 -17 0.0 0.0 0.00 0.00 0.00
20260902112047 -17 0.0 0.0 0.00 0.00 0.00
20260902111526 -17 0.0 0.0 0.00 0.00 0.00
20260902111141 -17 0.0 0.0 0.00 0.00 0.00
20260902110527 -17 0.0 0.0 0.00 0.00 0.00
20260902105547 -17 0.0 0.0 0.00 0.00 0.00
20260902105100 -17 0.0 0.0 0.00 0.00 0.00
20260902104509 -17 0.0 0.0 0.00 0.00 0.00
20260902104027 -17 0.0 0.0 0.00 0.00 0.00
20260902103027 -17 0.0 0.0 0.00 0.00 0.00
20260902102613 -17 0.0 0.0 0.00 0.00 0.00
20260902102050 -17 0.0 0.0 0.00 0.00 0.00
20260902101527 -17 0.0 0.0 0.00 0.00 0.00
20260902100527 -17 0.0 0.0 0.00 0.00 0.00
20260902100027 -17 0.0 0.0 0.00 0.00 0.00
20260902095626 -17 0.0 0.0 0.00 0.00 0.00
20260902095050 -17 0.0 0.0 0.00 0.00 0.00
20260902094028 -17 0.0 0.0 0.00 0.00 0.00
20260902093526 -17 0.0 0.0 0.00 0.00 0.00
20260902093120 -17 0.0 0.0 0.00 0.00 0.00
20260902092527 -17 0.0 0.0 0.00 0.00 0.00
20260902091526 -17 0.0 0.0 0.00 0.00 0.00
20260902091007 -17 0.0 0.0 0.00 0.00 0.00
20260902090603 -17 0.0 0.0 0.00 0.00 0.00
20260902090047 -17 0.0 0.0 0.00 0.00 0.00
20260902085026 -17 0.0 0.0 0.00 0.00 0.00
20260902084637 -17 0.0 0.0 0.00 0.00 0.00
20260902084054 -17 0.0 0.0 0.00 0.00 0.00
20260902083527 -17 0.0 0.0 0.00 0.00 0.00
20260902082526 -17 0.0 0.0 0.00 0.00 0.00
20260902082025 -17 0.0 0.0 0.00 0.00 0.00
20260902081619 -17 0.0 0.0 0.00 0.00 0.00
20260902081027 -17 0.0 0.0 0.00 0.00 0.00
20260902080027 -17 0.0 0.0 0.00 0.00 0.00
20260902075526 -17 0.0 0.0 0.00 0.00 0.00
20260902075122 -17 0.0 0.0 0.00 0.00 0.00
20260902074526 -17 0.0 0.0 0.00 0.00 0.00
20260902073527 -17 0.0 0.0 0.00 0.00 0.00
20260902073107 -17 0.0 0.0 0.00 0.00 0.00
20260902072543 -17 0.0 0.0 0.00 0.00 0.00
20260902072026 -17 0.0 0.0 0.00 0.00 0.00
20260902071026 -17 0.0 0.0 0.00 0.00 0.00
20260902070617 -17 0.0 0.0 0.00 0.00 0.00 92
20260902070020 23 0.0 0.0 0.00 0.00 0.00 92 1015.1
20260902065028 23 0.0 0.0 0.00 0.00 0.00 92 1015.2
20260902064028 23 0.0 0.0 0.00 0.00 0.00 92 1015.0
20260902063048 23 0.0 0.0 0.00 0.00 0.00 92 1015.0
20260902062028 23 0.0 0.0 0.00 0.00 0.00 92 1014.9
20260902061028 24 0.0 0.0 0.00 0.00 0.00 91 1014.9
20260902060027 24 0.0 0.0 0.00 0.00 0.00 91 1014.8
20260902055028 24 0.0 0.0 0.00 0.00 0.00 91 1014.8
20260902054028 24 0.0 0.0 0.00 0.00 0.00 92 1014.6